FW6138 Weather Reports


Display with metric or nautical units.
time (UTC)temp
F
wind
direction
speed
MPH
gust
MPH
rain 1hr
in
rain 24hr
in
rain mn
in
humidity
%
barometer
mb
20260831200104 77 59 5.0 13.0 0.00 0.00 0.00 41 1013.0
20260831194532 76 78 4.0 14.0 0.00 0.00 0.00 42 1013.2
20260831193030 75 70 5.0 13.0 0.00 0.00 0.00 41 1013.5
20260831191535 75 39 4.0 14.0 0.00 0.00 0.00 44 1013.8
20260831183105 73 46 4.0 11.0 0.00 0.00 0.00 49 1014.7
20260831181532 72 31 4.0 10.0 0.00 0.00 0.00 55 1014.9
20260831180031 69 349 2.0 6.0 0.00 0.00 0.00 62 1015.1
20260831173030 65 295 1.0 3.0 0.00 0.00 0.00 66 1015.5
20260831171528 64 315 1.0 4.0 0.00 0.00 0.00 67 1015.7
20260831170031 63 313 1.0 3.0 0.00 0.00 0.00 69 1015.9
20260831163028 60 347 0.0 2.0 0.00 0.00 0.00 81 1016.3
20260831161535 58 294 0.0 1.0 0.00 0.00 0.00 86 1016.5
20260831160031 56 270 0.0 0.0 0.00 0.00 0.00 90 1016.7
20260831154531 54 270 0.0 1.0 0.00 0.00 0.00 93 1016.8
20260831153031 52 182 0.0 0.0 0.00 0.00 0.00 95 1016.9
20260831150029 48 180 0.0 0.0 0.00 0.00 0.00 96 1016.8
20260831144531 46 180 0.0 0.0 0.00 0.00 0.00 96 1016.8
20260831143029 45 180 0.0 1.0 0.00 0.00 0.00 96 1016.9
20260831141532 44 180 1.0 3.0 0.00 0.00 0.00 96 1016.8
20260831140030 43 180 1.0 2.0 0.00 0.00 0.00 96 1016.6
20260831134531 43 180 0.0 0.0 0.00 0.00 0.00 96 1016.6
20260831133033 43 180 0.0 0.0 0.00 0.00 0.00 96 1016.6
20260831131537 44 180 0.0 0.0 0.00 0.00 0.00 95 1016.6
20260831130038 44 180 0.0 0.0 0.00 0.00 0.00 95 1016.6
20260831123152 45 180 0.0 0.0 0.00 0.00 0.00 95 1016.5
20260831121531 45 180 0.0 2.0 0.00 0.00 0.00 95 1016.5
20260831120029 45 180 0.0 0.0 0.00 0.00 0.00 95 1016.5
20260831114531 46 180 0.0 2.0 0.00 0.00 0.00 95 1016.6
20260831113036 45 180 1.0 2.0 0.00 0.00 0.00 95 1016.6
20260831111531 46 180 0.0 0.0 0.00 0.00 0.00 95 1016.6
20260831110030 46 180 0.0 0.0 0.00 0.00 0.00 95 1016.6
20260831103107 46 180 0.0 2.0 0.00 0.00 0.00 94 1016.6
20260831101528 47 180 0.0 2.0 0.00 0.00 0.00 94 1016.6
20260831100143 47 180 0.0 2.0 0.00 0.00 0.00 94 1016.8
20260831093030 47 180 0.0 2.0 0.00 0.00 0.00 94 1016.9
20260831091529 48 180 0.0 2.0 0.00 0.00 0.00 94 1017.0
20260831090032 48 180 0.0 2.0 0.00 0.00 0.00 93 1017.0
20260831084529 48 180 0.0 2.0 0.00 0.00 0.00 93 1017.1
20260831083144 48 180 0.0 1.0 0.00 0.00 0.00 93 1017.1
20260831081530 49 180 0.0 2.0 0.00 0.00 0.00 93 1017.3
20260831080029 49 180 0.0 0.0 0.00 0.00 0.00 92 1017.3
20260831074533 49 180 0.0 2.0 0.00 0.00 0.00 92 1017.3
20260831073030 50 180 0.0 3.0 0.00 0.00 0.00 92 1017.3
20260831071531 50 180 0.0 2.0 0.00 0.00 0.00 92 1017.4
20260831070030 51 182 0.0 3.0 0.00 0.00 0.00 92 1017.4
20260831063031 51 152 0.0 3.0 0.00 0.00 0.00 91 1017.5
20260831061529 51 135 0.0 3.0 0.00 0.00 0.00 90 1017.6
20260831060032 52 135 1.0 3.0 0.00 0.00 0.00 90 1017.6
20260831054530 53 135 0.0 2.0 0.00 0.00 0.00 89 1017.7
20260831053034 53 147 1.0 3.0 0.00 0.00 0.00 88 1017.7
20260831050030 55 180 0.0 0.0 0.00 0.00 0.00 86 1017.7
20260831044531 55 184 1.0 3.0 0.00 0.00 0.00 86 1017.7
20260831043029 55 183 1.0 4.0 0.00 0.00 0.00 85 1017.6
20260831041531 56 185 1.0 3.0 0.00 0.00 0.00 83 1017.7
20260831040032 57 178 0.0 4.0 0.00 0.00 0.00 81 1017.6
20260831034528 58 157 2.0 4.0 0.00 0.00 0.00 80 1017.3
20260831033029 59 157 3.0 4.0 0.00 0.00 0.00 78 1017.1
20260831031532 60 181 1.0 4.0 0.00 0.00 0.00 76 1017.0
20260831030109 61 286 0.0 5.0 0.00 0.00 0.00 73 1017.0
20260831024530 64 286 0.0 2.0 0.00 0.00 0.00 67 1016.9
20260831023102 65 229 1.0 6.0 0.00 0.00 0.00 66 1016.9
20260831021532 69 219 0.0 3.0 0.00 0.00 0.00 57 1016.9
20260831020034 70 234 1.0 6.0 0.00 0.00 0.00 54 1016.8
20260831014530 71 236 1.0 8.0 0.00 0.00 0.00 49 1016.8
20260831013029 72 270 3.0 9.0 0.00 0.00 0.00 47 1016.9
20260831010036 74 287 5.0 12.0 0.00 0.00 0.00 45 1016.9
20260831003035 74 294 6.0 15.0 0.00 0.00 0.00 44 1017.0
20260831001529 74 293 7.0 15.0 0.00 0.00 0.00 43 1017.0
20260831000037 74 293 6.0 15.0 0.00 0.00 0.00 43 1017.0
20260830234532 74 295 6.0 13.0 0.00 0.00 0.00 43 1017.2
20260830233030 74 298 7.0 16.0 0.00 0.00 0.00 43 1017.4
20260830231538 74 299 6.0 13.0 0.00 0.00 0.00 43 1017.5
20260830230028 73 296 6.0 14.0 0.00 0.00 0.00 42 1017.7
20260830224533 74 299 7.0 17.0 0.00 0.00 0.00 43 1018.0
20260830223030 73 305 6.0 15.0 0.00 0.00 0.00 45 1018.2
20260830221537 73 304 7.0 15.0 0.00 0.00 0.00 46 1018.5
20260830220037 72 303 7.0 20.0 0.00 0.00 0.00 47 1018.6
20260830214531 72 304 7.0 16.0 0.00 0.00 0.00 47 1018.9
20260830211537 71 299 8.0 16.0 0.00 0.00 0.00 48 1019.1
20260830210030 71 299 7.0 17.0 0.00 0.00 0.00 50 1019.2
20260830204533 70 297 6.0 14.0 0.00 0.00 0.00 51 1019.5
20260830203036 70 299 6.0 17.0 0.00 0.00 0.00 52 1019.7
20260830201531 69 309 6.0 14.0 0.00 0.00 0.00 53 1019.8